User: anonymous
Location: Unspecified
(0.0000°N, 0.0000°E)
Time: 23:05:04
(UTC+02:00)
Language:

Cosmos 1933 - Orbit

View from above orbital plane
View from above orbital plane
View from above satellite
View from above satellite

Ground track
Ground track

The orbit data is extracted from the following two-line orbital elements,

1 18958U 88020A   14244.44146352  .00001113  00000-0  85447-4 0  4064
2 18958 082.5325 006.5895 0013508 142.8516 217.3646 15.00750343438412
Epoch (UTC): 01 September 2014 10:35:42
Eccentricity: 0.0013508
inclination: 82.5325°
perigee height: 555 km
apogee height: 574 km
right ascension of ascending node: 6.5895°
argument of perigee: 142.8516°
revolutions per day: 15.00750343
mean anomaly at epoch: 217.3646°
orbit number at epoch: 43841

The dashed part of the orbit path shows where the satellite is in the earth's shadow,  

DLR